CW2654 Weather Reports


Display with metric or nautical units.
time (UTC)temp
F
wind
direction
speed
MPH
gust
MPH
rain 1hr
in
rain 24hr
in
rain mn
in
humidity
%
barometer
mb
20260906163105 53 0 0.0 0.0 0.08 0.44 0.44 99 1016.5
20260906161604 53 0 0.0 0.0 0.09 0.42 0.42 99 1016.5
20260906160059 53 0 0.0 0.0 0.11 0.41 0.41 99 1016.5
20260906154614 53 0 0.0 0.0 0.13 0.38 0.38 99 1016.4
20260906153116 52 0 0.0 0.0 0.14 0.35 0.35 99 1016.5
20260906151600 52 0 0.0 0.0 0.15 0.33 0.33 99 1016.3
20260906150101 52 0 0.0 0.0 0.15 0.30 0.30 99 1016.1
20260906144617 52 0 0.0 0.0 0.13 0.25 0.25 99 1016.1
20260906143106 52 0 0.0 0.0 0.11 0.21 0.21 99 1015.8
20260906141612 52 0 0.0 0.0 0.09 0.18 0.18 99 1015.7
20260906140110 52 0 0.0 0.0 0.08 0.15 0.15 99 1015.9
20260906134631 52 0 0.0 0.0 0.07 0.12 0.12 99 1015.8
20260906133104 52 0 0.0 0.0 0.08 0.10 0.10 99 1015.6
20260906131559 52 0 0.0 0.0 0.07 0.09 0.09 99 1015.6
20260906130106 52 0 0.0 0.0 0.05 0.07 0.07 99 1015.5
20260906124608 52 0 0.0 0.0 0.03 0.05 0.05 99 1015.1
20260906123101 52 0 0.0 0.0 0.00 0.02 0.02 98 1015.4
20260906121603 53 0 0.0 0.0 0.01 0.02 0.02 98 1015.4
20260906120109 53 0 0.0 0.0 0.01 0.02 0.02 98 1015.3
20260906114629 53 0 0.0 0.0 0.02 0.02 0.02 99 1015.3
20260906113101 53 0 0.0 0.0 0.02 0.02 0.02 99 1015.2
20260906111626 52 0 0.0 0.0 0.01 0.01 0.01 98 1015.4
20260906104607 52 0 0.0 0.0 0.00 0.00 0.00 98 1015.3
20260906103100 52 0 0.0 0.0 0.00 0.00 0.00 98 1015.4
20260906101556 52 0 0.0 0.0 0.00 0.00 0.00 98 1015.3
20260906094601 52 0 0.0 0.0 0.00 0.00 0.00 98 1015.5
20260906093106 52 0 0.0 0.0 0.00 0.00 0.00 98 1015.5
20260906091559 52 0 0.0 0.0 0.00 0.00 0.00 98 1015.5
20260906090116 52 0 0.0 0.0 0.00 0.00 0.00 98 1015.4
20260906084611 52 0 0.0 3.0 0.00 0.00 0.00 98 1015.6
20260906083059 52 104 0.0 0.0 0.00 0.00 0.00 98 1015.7
20260906081604 52 0 0.0 0.0 0.00 0.00 0.00 98 1015.5
20260906080058 52 0 0.0 3.0 0.00 0.00 0.00 98 1015.4
20260906074611 52 104 1.0 3.0 0.00 0.00 0.00 98 1015.5
20260906073110 52 0 0.0 2.0 0.00 0.00 0.00 98 1015.6
20260906071558 52 104 2.0 3.0 0.00 0.00 0.00 98 1015.7
20260906070122 52 104 0.0 3.0 0.00 0.00 0.00 97 1015.7
20260906064602 52 104 1.0 2.0 0.00 0.00 0.00 97 1015.7
20260906063059 52 0 0.0 2.0 0.00 0.00 0.00 97 1015.7
20260906061635 52 0 1.0 4.0 0.00 0.00 0.00 97 1015.9
20260906060109 52 104 1.0 4.0 0.00 0.00 0.00 97 1015.9
20260906054602 52 104 1.0 3.0 0.00 0.00 0.00 97 1015.8
20260906053101 52 104 1.0 3.0 0.00 0.00 0.00 97 1015.6
20260906051606 52 104 2.0 4.0 0.00 0.00 0.00 97 1015.9
20260906050116 52 104 1.0 3.0 0.00 0.00 0.00 96 1016.0
20260906044603 52 104 1.0 6.0 0.00 0.00 0.00 96 1016.2
20260906043110 52 94 2.0 4.0 0.00 0.00 0.00 96 1016.2
20260906041558 53 92 2.0 3.0 0.00 0.00 0.00 96 1016.3
20260906040119 53 92 2.0 3.0 0.00 0.00 0.00 96 1016.2
20260906034602 53 92 2.0 4.0 0.00 0.00 0.00 95 1016.1
20260906033101 54 84 2.0 5.0 0.00 0.00 0.00 95 1016.0
20260906031612 55 61 2.0 4.0 0.00 0.00 0.00 95 1015.8
20260906030109 55 55 1.0 4.0 0.00 0.00 0.00 94 1015.8
20260906024603 56 25 2.0 3.0 0.00 0.00 0.00 93 1015.6
20260906023125 57 360 2.0 3.0 0.00 0.00 0.00 90 1015.7
20260906021600 60 0 0.0 2.0 0.00 0.00 0.00 87 1015.6
20260906020100 61 0 0.0 2.0 0.00 0.00 0.00 83 1015.8
20260906014629 62 0 0.0 2.0 0.00 0.00 0.00 80 1015.8
20260906013103 63 352 1.0 5.0 0.00 0.00 0.00 77 1015.8
20260906011602 64 360 1.0 4.0 0.00 0.00 0.00 70 1015.9
20260906004609 65 0 1.0 5.0 0.00 0.00 0.00 72 1016.0
20260906003109 65 67 1.0 6.0 0.00 0.00 0.00 72 1015.9
20260906001602 66 9 1.0 5.0 0.00 0.00 0.00 70 1016.1
20260906000109 66 11 0.0 4.0 0.00 0.00 0.00 69 1016.1
20260905234602 67 0 0.0 4.0 0.00 0.02 0.00 72 1015.8
20260905233106 67 360 0.0 4.0 0.00 0.02 0.00 66 1016.1
20260905231601 66 319 0.0 3.0 0.00 0.02 0.00 65 1016.4
20260905230110 66 321 1.0 4.0 0.00 0.02 0.00 67 1016.4
20260905224609 66 352 2.0 3.0 0.00 0.15 0.00 71 1016.4
20260905223100 66 352 1.0 3.0 0.00 0.15 0.00 69 1016.4
20260905221606 66 0 1.0 4.0 0.00 0.15 0.00 74 1016.5
20260905220121 65 0 0.0 2.0 0.00 0.15 0.00 76 1016.4
20260905214600 65 9 0.0 4.0 0.00 0.52 0.00 78 1016.5
20260905213107 65 5 2.0 5.0 0.00 0.52 0.00 74 1016.4
20260905211609 65 316 2.0 5.0 0.00 0.52 0.00 76 1016.4
20260905210107 64 5 2.0 8.0 0.00 0.52 0.00 74 1016.5
20260905204600 64 303 2.0 6.0 0.00 0.52 0.00 76 1016.6
20260905203105 63 335 2.0 8.0 0.00 0.52 0.00 79 1016.6
20260905201618 62 311 3.0 8.0 0.00 0.52 0.00 81 1016.6
20260905200101 62 295 3.0 8.0 0.00 0.52 0.00 81 1016.7
20260905194602 61 346 2.0 8.0 0.00 0.52 0.00 85 1016.8
20260905193059 61 331 2.0 8.0 0.00 0.52 0.00 86 1017.0
20260905191605 59 344 2.0 5.0 0.00 0.52 0.00 89 1017.1
20260905190114 57 286 1.0 5.0 0.00 0.52 0.00 92 1017.3
20260905184604 56 348 1.0 5.0 0.00 0.52 0.00 93 1017.4
20260905183124 56 67 1.0 3.0 0.00 0.52 0.00 96 1017.4
20260905181606 55 0 0.0 3.0 0.00 0.52 0.00 99 1017.6
20260905180103 54 0 0.0 0.0 0.00 0.52 0.00 99 1017.6
20260905174602 54 0 0.0 0.0 0.00 0.52 0.00 100 1017.6
20260905173058 54 0 0.0 0.0 0.00 0.52 0.00 100 1017.6
20260905171604 54 0 0.0 0.0 0.00 0.52 0.00 100 1017.6
20260905170104 55 0 0.0 0.0 0.00 0.52 0.00 100 1017.6
20260905164607 55 0 0.0 0.0 0.00 0.52 0.00 100 1017.6